Simultaneous Nadir Overpasses (SNOs) Predictions

Prediction of SNOs between AQUA and TERRA Satellite Orbit:

Table of predicted SNOs for the next 14.0 days since TLE Epoch: 9/3/2022
Index Date (AQUA) Time (AQUA) Lat,Lon (AQUA) SZA (AQUA ) Date (TERRA) Time (TERRA) Lat,Lon (TERRA) SZA (TERRA ) Distance(km) Time Diff (sec)
1 09/08/2022 07:58:26 -70.70,-118.84 115.06 09/08/2022 07:57:21 -70.66,-121.49 115.09 97.62 65
2 09/08/2022 09:37:19 -70.75,-143.64 114.98 09/08/2022 09:36:13 -70.71,-146.14 115.01 91.75 66
3 09/08/2022 11:16:11 -70.75,-168.35 114.96 09/08/2022 11:15:05 -70.77,-170.78 114.94 88.98 66
4 09/08/2022 12:05:37 70.70, -0.64 65.01 09/08/2022 12:04:32 70.65, -3.30 64.97 98.15 65
5 09/08/2022 12:55:04 -70.80, 166.85 114.88 09/08/2022 12:53:57 -70.82, 164.58 114.86 83.09 67
6 09/08/2022 13:44:29 70.70, -25.36 65.04 09/08/2022 13:43:24 70.70, -27.95 65.05 95.29 65
7 09/08/2022 14:33:57 -70.85, 142.05 114.80 09/08/2022 14:32:50 -70.81, 139.85 114.84 80.45 67
8 09/08/2022 15:23:22 70.75, -50.15 65.12 09/08/2022 15:22:16 70.76, -52.59 65.12 89.37 66
9 09/08/2022 16:12:49 -70.85, 117.34 114.77 09/08/2022 16:11:42 -70.87, 115.21 114.76 77.63 67
10 09/08/2022 17:02:15 70.81, -74.95 65.20 09/08/2022 17:01:09 70.75, -77.32 65.14 86.81 66
11 09/08/2022 17:51:42 -70.91, 92.54 114.70 09/08/2022 17:50:34 -70.92, 90.57 114.68 71.75 68
12 09/08/2022 18:41:07 70.80, -99.67 65.22 09/08/2022 18:40:01 70.80,-101.96 65.22 83.89 66
13 09/08/2022 19:30:34 -70.90, 67.82 114.67 09/08/2022 19:29:27 -70.91, 65.84 114.66 72.17 67
14 09/08/2022 20:20:00 70.86,-124.47 65.30 09/08/2022 20:18:53 70.86,-126.60 65.30 77.98 67
15 09/08/2022 21:09:27 -70.96, 43.02 114.59 09/08/2022 21:08:19 -70.96, 41.20 114.58 66.28 68
16 09/08/2022 21:58:52 70.86,-149.18 65.33 09/08/2022 21:57:46 70.85,-151.33 65.32 78.41 66
17 09/08/2022 22:48:20 -71.01, 18.23 114.51 09/08/2022 22:47:11 -71.02, 16.56 114.51 60.40 69
18 09/08/2022 23:37:45 70.91,-173.98 65.40 09/08/2022 23:36:38 70.90,-175.97 65.40 72.50 67
19 09/09/2022 00:27:12 -71.01, -6.49 114.49 09/09/2022 00:26:04 -71.01, -8.17 114.48 60.82 68
20 09/09/2022 01:16:38 70.96, 161.22 65.48 09/09/2022 01:15:30 70.96, 159.39 65.48 66.59 68
21 09/09/2022 02:06:05 -71.06, -31.29 114.41 09/09/2022 02:04:56 -71.06, -32.81 114.41 54.94 69
22 09/09/2022 02:55:30 70.96, 136.51 65.51 09/09/2022 02:54:22 71.01, 134.74 65.55 64.05 68
23 09/09/2022 03:44:58 -71.11, -56.09 114.33 09/09/2022 03:43:48 -71.12, -57.45 114.33 49.06 70
24 09/09/2022 04:34:23 71.02, 111.71 65.59 09/09/2022 04:33:15 71.00, 110.02 65.58 61.11 68
25 09/09/2022 05:23:50 -71.11, -80.80 114.31 09/09/2022 05:22:41 -71.11, -82.18 114.31 49.48 69
26 09/09/2022 06:13:16 71.07, 86.91 65.67 09/09/2022 06:12:07 71.06, 85.38 65.65 55.21 69
27 09/09/2022 07:02:43 -71.17,-105.60 114.23 09/09/2022 07:01:33 -71.16,-106.82 114.23 43.60 70
28 09/09/2022 07:52:08 71.07, 62.19 65.69 09/09/2022 07:50:59 71.11, 60.74 65.73 52.64 69
29 09/09/2022 08:41:36 -71.22,-130.41 114.15 09/09/2022 08:40:25 -71.21,-131.46 114.15 37.72 71
30 09/09/2022 09:31:01 71.12, 37.39 65.77 09/09/2022 09:29:52 71.10, 36.01 65.75 49.74 69
31 09/09/2022 10:20:28 -71.22,-155.12 114.13 09/09/2022 10:19:18 -71.21,-156.18 114.13 38.14 70
32 09/09/2022 11:09:54 71.17, 12.59 65.85 09/09/2022 11:08:44 71.15, 11.37 65.83 43.85 70
33 09/09/2022 11:59:21 -71.27,-179.92 114.05 09/09/2022 11:58:10 -71.26, 179.18 114.05 32.27 71
34 09/09/2022 12:48:46 71.17, -12.13 65.87 09/09/2022 12:47:36 71.21, -13.27 65.91 41.23 70
35 09/09/2022 13:38:13 -71.27, 155.36 114.02 09/09/2022 13:37:02 -71.31, 154.54 113.98 29.95 71
36 09/09/2022 14:27:39 71.23, -36.93 65.95 09/09/2022 14:26:29 71.20, -38.00 65.93 38.39 70
37 09/09/2022 15:17:06 -71.32, 130.56 113.94 09/09/2022 15:15:55 -71.31, 129.81 113.95 26.82 71
38 09/09/2022 16:06:31 71.23, -61.64 65.98 09/09/2022 16:05:21 71.25, -62.64 66.01 35.72 70
39 09/09/2022 16:55:59 -71.38, 105.76 113.86 09/09/2022 16:54:47 -71.36, 105.17 113.88 20.96 72
40 09/09/2022 17:45:24 71.28, -86.44 66.06 09/09/2022 17:44:14 71.25, -87.36 66.03 32.96 70
41 09/09/2022 18:34:50 -71.37, 81.04 113.84 09/09/2022 18:33:39 -71.36, 80.44 113.85 21.40 71
42 09/09/2022 19:24:16 71.33,-111.25 66.14 09/09/2022 19:23:05 71.30,-112.00 66.11 27.10 71
43 09/09/2022 20:13:43 -71.43, 56.24 113.76 09/09/2022 20:12:31 -71.41, 55.81 113.78 15.57 72
44 09/09/2022 21:03:08 71.33,-135.96 66.16 09/09/2022 21:01:57 71.35,-136.64 66.18 24.31 71
45 09/09/2022 21:52:35 -71.43, 31.53 113.74 09/09/2022 21:51:23 -71.46, 31.17 113.70 13.31 72
46 09/09/2022 22:42:01 71.38,-160.76 66.24 09/09/2022 22:40:50 71.35,-161.37 66.21 21.74 71
47 09/09/2022 23:31:28 -71.48, 6.72 113.66 09/09/2022 23:30:16 -71.46, 6.44 113.68 10.25 72
48 09/10/2022 00:20:53 71.38, 174.52 66.26 09/10/2022 00:19:42 71.40, 173.99 66.28 18.80 71
49 09/10/2022 01:10:21 -71.53, -18.08 113.58 09/10/2022 01:09:08 -71.51, -18.20 113.60 4.83 73
50 09/10/2022 01:59:46 71.44, 149.72 66.34 09/10/2022 01:58:34 71.45, 149.36 66.36 12.90 72
51 09/10/2022 02:49:13 -71.53, -42.80 113.55 09/10/2022 02:48:00 -71.56, -42.83 113.52 3.52 73
52 09/10/2022 03:38:39 71.49, 124.91 66.42 09/10/2022 03:37:27 71.45, 124.63 66.38 10.96 72
53 09/10/2022 04:28:06 -71.58, -67.60 113.47 09/10/2022 04:26:53 -71.56, -67.56 113.50 3.28 73
54 09/10/2022 05:17:31 71.49, 100.20 66.45 09/10/2022 05:16:19 71.50, 99.99 66.46 7.40 72
55 09/10/2022 06:06:58 -71.58, -92.31 113.45 09/10/2022 06:05:46 -71.55, -92.29 113.48 3.35 72
56 09/10/2022 06:56:24 71.54, 75.39 66.53 09/10/2022 06:55:11 71.55, 75.35 66.54 1.75 73
57 09/10/2022 07:45:50 -71.58,-117.03 113.42 09/10/2022 07:44:39 -71.55,-117.01 113.46 3.49 71
58 09/10/2022 08:35:16 71.54, 50.68 66.55 09/10/2022 08:34:04 71.55, 50.63 66.56 1.97 72
59 09/10/2022 09:24:42 -71.58,-141.74 113.40 09/10/2022 09:23:32 -71.55,-141.74 113.43 3.68 70
60 09/10/2022 10:14:08 71.54, 25.96 66.58 09/10/2022 10:12:57 71.54, 25.90 66.58 2.28 71
61 09/10/2022 11:03:34 -71.58,-166.46 113.37 09/10/2022 11:02:24 -71.60,-166.38 113.36 3.51 70
62 09/10/2022 11:53:00 71.54, 1.25 66.60 09/10/2022 11:51:50 71.54, 1.18 66.61 2.64 70
63 09/10/2022 12:42:26 -71.58, 168.83 113.35 09/10/2022 12:41:17 -71.59, 168.90 113.33 3.04 69
64 09/10/2022 13:31:52 71.54, -23.47 66.63 09/10/2022 13:30:43 71.54, -23.55 66.63 3.04 69
65 09/10/2022 14:21:18 -71.58, 144.11 113.32 09/10/2022 14:20:10 -71.59, 144.17 113.31 2.56 68
66 09/10/2022 15:10:45 71.59, -48.27 66.71 09/10/2022 15:09:35 71.59, -48.19 66.71 2.88 70
67 09/10/2022 16:00:10 -71.58, 119.40 113.30 09/10/2022 15:59:03 -71.59, 119.44 113.29 2.09 67
68 09/10/2022 16:49:37 71.59, -72.99 66.73 09/10/2022 16:48:28 71.59, -72.92 66.73 2.50 69
69 09/10/2022 17:39:02 -71.57, 94.68 113.27 09/10/2022 17:37:56 -71.58, 94.72 113.26 1.62 66
70 09/10/2022 18:28:29 71.59, -97.70 66.76 09/10/2022 18:27:21 71.58, -97.64 66.75 2.17 68
71 09/10/2022 19:17:54 -71.57, 69.97 113.25 09/10/2022 19:16:49 -71.58, 69.99 113.24 1.15 65
72 09/10/2022 20:07:21 71.59,-122.41 66.78 09/10/2022 20:06:14 71.58,-122.37 66.77 1.91 67
73 09/10/2022 20:56:46 -71.57, 45.25 113.22 09/10/2022 20:55:42 -71.58, 45.26 113.22 0.71 64
74 09/10/2022 21:46:13 71.59,-147.13 66.81 09/10/2022 21:45:07 71.58,-147.09 66.80 1.75 66
75 09/10/2022 22:35:38 -71.57, 20.54 113.20 09/10/2022 22:34:35 -71.57, 20.54 113.20 0.38 63
76 09/10/2022 23:25:05 71.59,-171.84 66.83 09/10/2022 23:24:00 71.57,-171.82 66.82 1.72 65
77 09/11/2022 00:14:30 -71.57, -4.17 113.17 09/11/2022 00:13:28 -71.57, -4.19 113.17 0.49 62
78 09/11/2022 01:03:57 71.58, 163.44 66.86 09/11/2022 01:02:53 71.57, 163.45 66.84 1.84 64
79 09/11/2022 01:53:22 -71.57, -28.89 113.15 09/11/2022 01:52:21 -71.57, -28.91 113.15 0.90 61
80 09/11/2022 02:42:49 71.58, 138.73 66.88 09/11/2022 02:41:46 71.57, 138.73 66.86 2.07 63
81 09/11/2022 03:32:14 -71.57, -53.60 113.12 09/11/2022 03:31:14 -71.57, -53.64 113.13 1.36 60
82 09/11/2022 04:21:41 71.58, 114.01 66.91 09/11/2022 04:20:39 71.56, 114.00 66.89 2.38 62
83 09/11/2022 05:11:06 -71.57, -78.32 113.10 09/11/2022 05:10:07 -71.56, -78.37 113.10 1.84 59
84 09/11/2022 06:00:33 71.58, 89.30 66.93 09/11/2022 05:59:32 71.56, 89.27 66.91 2.75 61
85 09/11/2022 06:49:58 -71.57,-103.03 113.07 09/11/2022 06:49:00 -71.56,-103.09 113.08 2.32 58
86 09/11/2022 07:39:25 71.58, 64.58 66.96 09/11/2022 07:38:25 71.56, 64.55 66.93 3.16 60
87 09/11/2022 08:28:50 -71.57,-127.75 113.05 09/11/2022 08:27:53 -71.56,-127.82 113.06 2.80 57
88 09/11/2022 09:18:17 71.58, 39.87 66.98 09/11/2022 09:17:17 71.61, 39.91 67.01 3.20 60
89 09/11/2022 10:07:42 -71.57,-152.46 113.02 09/11/2022 10:06:46 -71.55,-152.55 113.04 3.29 56
90 09/11/2022 10:57:09 71.58, 15.15 67.01 09/11/2022 10:56:10 71.60, 15.18 67.03 2.77 59
91 09/11/2022 11:46:35 -71.62,-177.27 112.94 09/11/2022 11:45:38 -71.60,-177.18 112.96 3.38 57
92 09/11/2022 12:36:01 71.58, -9.56 67.04 09/11/2022 12:35:03 71.60, -9.54 67.06 2.37 58
93 09/11/2022 13:25:27 -71.62, 158.02 112.92 09/11/2022 13:24:31 -71.60, 158.09 112.94 3.18 56
94 09/11/2022 14:14:53 71.58, -34.28 67.06 09/11/2022 14:13:56 71.60, -34.27 67.08 2.01 57
95 09/11/2022 15:04:19 -71.62, 133.30 112.89 09/11/2022 15:03:24 -71.60, 133.36 112.91 3.05 55
96 09/11/2022 15:53:45 71.58, -58.99 67.09 09/11/2022 15:52:49 71.59, -59.00 67.10 1.71 56
97 09/11/2022 16:43:11 -71.62, 108.59 112.87 09/11/2022 16:42:17 -71.59, 108.64 112.89 3.00 54
98 09/11/2022 17:32:37 71.58, -83.71 67.11 09/11/2022 17:31:42 71.59, -83.72 67.12 1.53 55
99 09/11/2022 18:22:03 -71.61, 83.87 112.84 09/11/2022 18:21:10 -71.59, 83.91 112.87 3.04 53
100 09/11/2022 19:11:29 71.58,-108.42 67.14 09/11/2022 19:10:35 71.59,-108.45 67.15 1.50 54
101 09/11/2022 20:00:55 -71.61, 59.16 112.82 09/11/2022 20:00:03 -71.59, 59.18 112.84 3.15 52
102 09/11/2022 20:50:21 71.58,-133.14 67.16 09/11/2022 20:49:28 71.58,-133.18 67.17 1.64 53
103 09/11/2022 21:39:46 -71.61, 34.44 112.79 09/11/2022 21:38:55 -71.58, 34.46 112.82 3.33 51
104 09/11/2022 22:29:12 71.57,-157.85 67.19 09/11/2022 22:28:20 71.58,-157.90 67.19 1.90 52
105 09/11/2022 23:18:38 -71.61, 9.73 112.77 09/11/2022 23:17:48 -71.58, 9.73 112.80 3.58 50
106 09/12/2022 00:08:04 71.57, 177.43 67.21 09/12/2022 00:07:13 71.58, 177.37 67.21 2.25 51
107 09/12/2022 00:57:30 -71.61, -14.99 112.74 09/12/2022 00:56:40 -71.63, -14.91 112.72 3.51 50
108 09/12/2022 01:46:56 71.57, 152.72 67.24 09/12/2022 01:46:06 71.57, 152.64 67.24 2.64 50
109 09/12/2022 02:36:22 -71.61, -39.70 112.72 09/12/2022 02:35:33 -71.63, -39.63 112.70 3.01 49
110 09/12/2022 03:25:48 71.57, 128.00 67.26 09/12/2022 03:24:59 71.57, 127.92 67.26 3.08 49
111 09/12/2022 04:15:14 -71.61, -64.42 112.69 09/12/2022 04:14:26 -71.62, -64.36 112.68 2.51 48
112 09/12/2022 05:04:41 71.63, 103.20 67.34 09/12/2022 05:03:51 71.62, 103.28 67.34 2.94 50
113 09/12/2022 05:54:06 -71.61, -89.13 112.66 09/12/2022 05:53:19 -71.62, -89.09 112.65 2.01 47
114 09/12/2022 06:43:33 71.62, 78.48 67.37 09/12/2022 06:42:44 71.62, 78.55 67.36 2.63 49
115 09/12/2022 07:32:58 -71.61,-113.85 112.64 09/12/2022 07:32:12 -71.62,-113.81 112.63 1.52 46
116 09/12/2022 08:22:25 71.62, 53.77 67.39 09/12/2022 08:21:37 71.61, 53.82 67.38 2.40 48
117 09/12/2022 09:11:50 -71.61,-138.56 112.61 09/12/2022 09:11:05 -71.61,-138.54 112.61 1.02 45
118 09/12/2022 10:01:17 71.62, 29.05 67.42 09/12/2022 10:00:30 71.61, 29.10 67.41 2.26 47
119 09/12/2022 10:50:42 -71.61,-163.28 112.59 09/12/2022 10:49:58 -71.61,-163.27 112.59 0.53 44
120 09/12/2022 11:40:09 71.62, 4.34 67.45 09/12/2022 11:39:23 71.61, 4.37 67.43 2.23 46
121 09/12/2022 12:29:34 -71.61, 172.01 112.56 09/12/2022 12:28:51 -71.61, 172.01 112.56 0.17 43
122 09/12/2022 13:19:01 71.62, -20.38 67.47 09/12/2022 13:18:16 71.60, -20.36 67.45 2.32 45
123 09/12/2022 14:08:26 -71.61, 147.29 112.54 09/12/2022 14:07:44 -71.60, 147.28 112.54 0.53 42
124 09/12/2022 14:57:53 71.62, -45.09 67.50 09/12/2022 14:57:09 71.60, -45.08 67.47 2.52 44
125 09/12/2022 15:47:18 -71.60, 122.58 112.51 09/12/2022 15:46:37 -71.60, 122.55 112.52 1.02 41
126 09/12/2022 16:36:45 71.62, -69.81 67.52 09/12/2022 16:36:02 71.60, -69.81 67.50 2.80 43
127 09/12/2022 17:26:10 -71.60, 97.86 112.49 09/12/2022 17:25:30 -71.60, 97.83 112.49 1.52 40
128 09/12/2022 18:15:37 71.62, -94.52 67.55 09/12/2022 18:14:55 71.59, -94.54 67.52 3.14 42
129 09/12/2022 19:05:02 -71.60, 73.15 112.46 09/12/2022 19:04:23 -71.59, 73.10 112.47 2.03 39
130 09/12/2022 19:54:29 71.62,-119.24 67.57 09/12/2022 19:53:47 71.64,-119.17 67.60 3.49 42
131 09/12/2022 20:43:54 -71.60, 48.43 112.44 09/12/2022 20:43:16 -71.59, 48.37 112.45 2.53 38
132 09/12/2022 21:33:21 71.62,-143.95 67.60 09/12/2022 21:32:40 71.64,-143.90 67.62 2.98 41
133 09/12/2022 22:22:46 -71.60, 23.72 112.41 09/12/2022 22:22:09 -71.59, 23.65 112.43 3.04 37
134 09/12/2022 23:12:13 71.62,-168.67 67.62 09/12/2022 23:11:33 71.64,-168.63 67.64 2.47 40
135 09/13/2022 00:01:38 -71.60, -1.00 112.38 09/13/2022 00:01:02 -71.58, -1.08 112.40 3.55 36
136 09/13/2022 00:51:05 71.62, 166.61 67.65 09/13/2022 00:50:26 71.63, 166.65 67.66 1.97 39
137 09/13/2022 01:40:31 -71.65, -25.80 112.30 09/13/2022 01:39:54 -71.63, -25.72 112.33 3.69 37
138 09/13/2022 02:29:57 71.62, 141.90 67.68 09/13/2022 02:29:19 71.63, 141.92 67.69 1.48 38
139 09/13/2022 03:19:22 -71.60, -50.43 112.33 09/13/2022 03:18:47 -71.63, -50.44 112.30 3.49 35
140 09/13/2022 04:08:49 71.62, 117.18 67.70 09/13/2022 04:08:12 71.63, 117.19 67.71 1.02 37
141 09/13/2022 04:58:14 -71.60, -75.14 112.31 09/13/2022 04:57:40 -71.63, -75.17 112.28 3.30 34
142 09/13/2022 05:47:41 71.62, 92.47 67.73 09/13/2022 05:47:05 71.62, 92.47 67.73 0.66 36
143 09/13/2022 06:37:06 -71.60, -99.86 112.28 09/13/2022 06:36:33 -71.62, -99.90 112.26 3.17 33
144 09/13/2022 07:26:33 71.62, 67.75 67.75 09/13/2022 07:25:58 71.62, 67.74 67.76 0.62 35
145 09/13/2022 08:15:58 -71.60,-124.57 112.26 09/13/2022 08:15:26 -71.62,-124.63 112.23 3.12 32
146 09/13/2022 09:05:25 71.61, 43.04 67.78 09/13/2022 09:04:51 71.61, 43.01 67.78 0.94 34
147 09/13/2022 09:54:50 -71.60,-149.29 112.23 09/13/2022 09:54:19 -71.62,-149.35 112.21 3.16 31
148 09/13/2022 10:44:17 71.61, 18.32 67.80 09/13/2022 10:43:44 71.61, 18.28 67.80 1.39 33
149 09/13/2022 11:33:42 -71.60,-174.00 112.20 09/13/2022 11:33:12 -71.61,-174.08 112.19 3.27 30
150 09/13/2022 12:23:09 71.61, -6.39 67.83 09/13/2022 12:22:37 71.61, -6.44 67.82 1.88 32
151 09/13/2022 13:12:34 -71.60, 161.28 112.18 09/13/2022 13:12:05 -71.61, 161.19 112.17 3.46 29
152 09/13/2022 14:02:01 71.61, -31.11 67.86 09/13/2022 14:01:30 71.60, -31.17 67.85 2.38 31
153 09/13/2022 14:51:27 -71.65, 136.48 112.10 09/13/2022 14:50:57 -71.66, 136.56 112.09 3.08 30
154 09/13/2022 15:40:53 71.61, -55.82 67.88 09/13/2022 15:40:23 71.60, -55.90 67.87 2.90 30
155 09/13/2022 16:30:19 -71.65, 111.76 112.07 09/13/2022 16:29:50 -71.66, 111.83 112.07 2.58 29
156 09/13/2022 17:19:45 71.61, -80.54 67.91 09/13/2022 17:19:16 71.60, -80.62 67.89 3.42 29
157 09/13/2022 18:09:11 -71.65, 87.05 112.05 09/13/2022 18:08:43 -71.65, 87.10 112.04 2.09 28
158 09/13/2022 18:58:38 71.67,-105.34 67.99 09/13/2022 18:58:08 71.65,-105.26 67.97 3.58 30
159 09/13/2022 19:48:03 -71.65, 62.33 112.02 09/13/2022 19:47:36 -71.65, 62.38 112.02 1.62 27
160 09/13/2022 20:37:30 71.67,-130.06 68.01 09/13/2022 20:37:01 71.64,-129.99 67.99 3.48 29
161 09/13/2022 21:26:55 -71.65, 37.62 112.00 09/13/2022 21:26:29 -71.65, 37.65 112.00 1.19 26
162 09/13/2022 22:16:22 71.66,-154.78 68.04 09/13/2022 22:15:54 71.64,-154.71 68.01 3.45 28
163 09/13/2022 23:05:47 -71.65, 12.90 111.97 09/13/2022 23:05:22 -71.64, 12.92 111.97 0.87 25
164 09/13/2022 23:55:13 71.61,-179.40 68.01 09/13/2022 23:54:47 71.64,-179.44 68.04 3.29 26
165 09/14/2022 00:44:38 -71.65, -11.81 111.95 09/14/2022 00:44:14 -71.64, -11.80 111.95 0.80 24
166 09/14/2022 01:34:04 71.61, 155.88 68.04 09/14/2022 01:33:39 71.63, 155.83 68.06 3.20 25
167 09/14/2022 02:23:30 -71.64, -36.53 111.92 09/14/2022 02:23:07 -71.64, -36.53 111.93 1.04 23
168 09/14/2022 03:12:56 71.61, 131.17 68.06 09/14/2022 03:12:32 71.63, 131.10 68.08 3.19 24
169 09/14/2022 04:02:22 -71.64, -61.25 111.89 09/14/2022 04:02:00 -71.63, -61.26 111.91 1.44 22
170 09/14/2022 04:51:48 71.61, 106.45 68.09 09/14/2022 04:51:25 71.63, 106.38 68.11 3.28 23
171 09/14/2022 05:41:14 -71.64, -85.96 111.87 09/14/2022 05:40:53 -71.63, -85.99 111.88 1.91 21
172 09/14/2022 06:30:40 71.61, 81.74 68.11 09/14/2022 06:30:18 71.62, 81.65 68.13 3.44 22
173 09/14/2022 07:20:06 -71.64,-110.68 111.84 09/14/2022 07:19:46 -71.63,-110.71 111.86 2.40 20
174 09/14/2022 08:09:33 71.66, 56.93 68.19 09/14/2022 08:09:10 71.67, 57.01 68.21 3.12 23
175 09/14/2022 08:58:58 -71.64,-135.39 111.82 09/14/2022 08:58:39 -71.62,-135.44 111.84 2.91 19
176 09/14/2022 09:48:25 71.66, 32.22 68.22 09/14/2022 09:48:03 71.67, 32.29 68.23 2.61 22
177 09/14/2022 10:37:50 -71.64,-160.11 111.79 09/14/2022 10:37:32 -71.62,-160.17 111.82 3.42 18
178 09/14/2022 11:27:17 71.66, 7.50 68.25 09/14/2022 11:26:56 71.67, 7.56 68.25 2.12 21
179 09/14/2022 12:16:42 -71.64, 175.18 111.76 09/14/2022 12:16:24 -71.67, 175.20 111.74 2.99 18
180 09/14/2022 13:06:09 71.66, -17.22 68.27 09/14/2022 13:05:49 71.66, -17.17 68.27 1.66 20
181 09/14/2022 13:55:34 -71.64, 150.46 111.74 09/14/2022 13:55:17 -71.66, 150.47 111.72 2.59 17
182 09/14/2022 14:45:01 71.66, -41.93 68.30 09/14/2022 14:44:42 71.66, -41.89 68.30 1.27 19
183 09/14/2022 15:34:26 -71.64, 125.75 111.71 09/14/2022 15:34:10 -71.66, 125.74 111.69 2.23 16
184 09/14/2022 16:23:53 71.66, -66.65 68.32 09/14/2022 16:23:35 71.65, -66.62 68.32 1.03 18
185 09/14/2022 17:13:18 -71.64, 101.03 111.69 09/14/2022 17:13:03 -71.66, 101.02 111.67 1.95 15
186 09/14/2022 18:02:45 71.66, -91.36 68.35 09/14/2022 18:02:28 71.65, -91.35 68.34 1.05 17
187 09/14/2022 18:52:10 -71.64, 76.32 111.66 09/14/2022 18:51:56 -71.65, 76.29 111.65 1.79 14
188 09/14/2022 19:41:37 71.66,-116.08 68.38 09/14/2022 19:41:21 71.65,-116.08 68.36 1.32 16
189 09/14/2022 20:31:02 -71.64, 51.60 111.63 09/14/2022 20:30:49 -71.65, 51.56 111.62 1.79 13
190 09/14/2022 21:20:29 71.66,-140.79 68.40 09/14/2022 21:20:14 71.64,-140.80 68.39 1.73 15
191 09/14/2022 22:09:54 -71.64, 26.88 111.61 09/14/2022 22:09:42 -71.65, 26.83 111.60 1.94 12
192 09/14/2022 22:59:21 71.66,-165.51 68.43 09/14/2022 22:59:07 71.64,-165.53 68.41 2.20 14
193 09/14/2022 23:48:46 -71.64, 2.17 111.58 09/14/2022 23:48:35 -71.64, 2.11 111.58 2.21 11
194 09/15/2022 00:38:13 71.66, 169.78 68.46 09/15/2022 00:38:00 71.64, 169.74 68.43 2.70 13
195 09/15/2022 01:27:38 -71.64, -22.55 111.56 09/15/2022 01:27:28 -71.64, -22.62 111.56 2.56 10
196 09/15/2022 02:17:05 71.66, 145.06 68.48 09/15/2022 02:16:53 71.63, 145.02 68.46 3.22 12
197 09/15/2022 03:06:30 -71.64, -47.26 111.53 09/15/2022 03:06:21 -71.64, -47.35 111.53 2.98 9
198 09/15/2022 03:55:57 71.66, 120.34 68.51 09/15/2022 03:55:45 71.68, 120.38 68.53 3.07 12
199 09/15/2022 04:45:23 -71.69, -72.07 111.45 09/15/2022 04:45:13 -71.69, -71.98 111.46 3.02 10
200 09/15/2022 05:34:49 71.66, 95.63 68.53 09/15/2022 05:34:38 71.68, 95.65 68.56 2.58 11
201 09/15/2022 06:24:15 -71.69, -96.78 111.42 09/15/2022 06:24:06 -71.68, -96.71 111.43 2.73 9
202 09/15/2022 07:13:41 71.66, 70.91 68.56 09/15/2022 07:13:31 71.68, 70.92 68.58 2.11 10
203 09/15/2022 08:03:07 -71.69,-121.50 111.40 09/15/2022 08:02:59 -71.68,-121.44 111.41 2.53 8
204 09/15/2022 08:52:33 71.66, 46.20 68.59 09/15/2022 08:52:24 71.67, 46.20 68.60 1.70 9
205 09/15/2022 09:41:59 -71.69,-146.22 111.37 09/15/2022 09:41:52 -71.68,-146.17 111.39 2.43 7
206 09/15/2022 10:31:25 71.66, 21.48 68.61 09/15/2022 10:31:17 71.67, 21.47 68.62 1.39 8
207 09/15/2022 11:20:51 -71.69,-170.93 111.35 09/15/2022 11:20:45 -71.67,-170.89 111.36 2.46 6
208 09/15/2022 12:10:17 71.66, -3.23 68.64 09/15/2022 12:10:10 71.66, -3.26 68.65 1.26 7
209 09/15/2022 12:59:43 -71.69, 164.35 111.32 09/15/2022 12:59:38 -71.67, 164.38 111.34 2.61 5
210 09/15/2022 13:49:09 71.66, -27.95 68.66 09/15/2022 13:49:03 71.66, -27.99 68.67 1.36 6
211 09/15/2022 14:38:35 -71.69, 139.64 111.29 09/15/2022 14:38:31 -71.66, 139.65 111.32 2.85 4
212 09/15/2022 15:28:01 71.66, -52.67 68.69 09/15/2022 15:27:56 71.66, -52.71 68.69 1.66 5
213 09/15/2022 16:17:27 -71.69, 114.92 111.27 09/15/2022 16:17:24 -71.66, 114.93 111.30 3.18 3
214 09/15/2022 17:06:53 71.66, -77.38 68.72 09/15/2022 17:06:49 71.65, -77.44 68.71 2.07 4
215 09/15/2022 17:56:19 -71.69, 90.21 111.24 09/15/2022 17:56:17 -71.66, 90.20 111.27 3.56 2
216 09/15/2022 18:45:45 71.66,-102.10 68.74 09/15/2022 18:45:42 71.65,-102.17 68.74 2.53 3
217 09/15/2022 19:35:11 -71.69, 65.49 111.22 09/15/2022 19:35:09 -71.71, 65.56 111.20 3.22 2
218 09/15/2022 20:24:37 71.66,-126.81 68.77 09/15/2022 20:24:35 71.65,-126.89 68.76 3.03 2
219 09/15/2022 21:14:03 -71.69, 40.77 111.19 09/15/2022 21:14:02 -71.70, 40.83 111.17 2.67 1
220 09/15/2022 22:03:30 71.71,-151.62 68.85 09/15/2022 22:03:27 71.70,-151.53 68.84 3.40 3
221 09/15/2022 22:52:55 -71.69, 16.06 111.16 09/15/2022 22:52:55 -71.70, 16.11 111.15 2.12 0
222 09/15/2022 23:42:22 71.71,-176.34 68.88 09/15/2022 23:42:20 71.69,-176.26 68.86 3.24 2
223 09/16/2022 00:31:47 -71.69, -8.66 111.14 09/16/2022 00:31:48 -71.70, -8.62 111.13 1.57 1
224 09/16/2022 01:21:14 71.71, 158.95 68.90 09/16/2022 01:21:13 71.69, 159.01 68.88 3.17 1
225 09/16/2022 02:10:39 -71.69, -33.37 111.11 09/16/2022 02:10:41 -71.69, -33.35 111.11 1.02 2
226 09/16/2022 03:00:06 71.71, 134.23 68.93 09/16/2022 03:00:06 71.69, 134.29 68.91 3.21 0
227 09/16/2022 03:49:30 -71.69, -58.09 111.08 09/16/2022 03:49:33 -71.69, -58.07 111.08 0.49 3
228 09/16/2022 04:38:57 71.71, 109.52 68.95 09/16/2022 04:38:58 71.68, 109.56 68.93 3.34 1
229 09/16/2022 05:28:22 -71.69, -82.80 111.06 09/16/2022 05:28:26 -71.68, -82.80 111.06 0.25 4
230 09/16/2022 06:17:48 71.65, 84.89 68.93 09/16/2022 06:17:51 71.68, 84.83 68.95 3.35 3
231 09/16/2022 07:07:14 -71.69,-107.52 111.03 09/16/2022 07:07:19 -71.68,-107.53 111.04 0.72 5
232 09/16/2022 07:56:40 71.65, 60.18 68.95 09/16/2022 07:56:44 71.67, 60.10 68.97 3.34 4
233 09/16/2022 08:46:06 -71.69,-132.24 111.01 09/16/2022 08:46:12 -71.68,-132.26 111.01 1.26 6
234 09/16/2022 09:35:32 71.65, 35.46 68.98 09/16/2022 09:35:37 71.67, 35.38 69.00 3.42 5
235 09/16/2022 10:24:58 -71.69,-156.95 110.98 09/16/2022 10:25:05 -71.67,-156.98 110.99 1.82 7
236 09/16/2022 11:14:25 71.71, 10.65 69.06 09/16/2022 11:14:29 71.72, 10.74 69.07 3.36 4
237 09/16/2022 12:03:50 -71.69, 178.33 110.95 09/16/2022 12:03:58 -71.67, 178.29 110.97 2.38 8
238 09/16/2022 12:53:17 71.71, -14.06 69.09 09/16/2022 12:53:22 71.72, -13.99 69.10 2.83 5
239 09/16/2022 13:42:42 -71.69, 153.62 110.93 09/16/2022 13:42:51 -71.67, 153.56 110.95 2.94 9
240 09/16/2022 14:32:09 71.71, -38.78 69.11 09/16/2022 14:32:15 71.71, -38.72 69.12 2.32 6
241 09/16/2022 15:21:34 -71.69, 128.90 110.90 09/16/2022 15:21:43 -71.72, 128.92 110.87 3.47 9
242 09/16/2022 16:11:01 71.71, -63.50 69.14 09/16/2022 16:11:08 71.71, -63.44 69.14 1.86 7
243 09/16/2022 17:00:26 -71.69, 104.18 110.87 09/16/2022 17:00:36 -71.71, 104.20 110.85 3.00 10
244 09/16/2022 17:49:53 71.71, -88.21 69.17 09/16/2022 17:50:01 71.70, -88.17 69.16 1.47 8
245 09/16/2022 18:39:18 -71.69, 79.47 110.85 09/16/2022 18:39:29 -71.71, 79.47 110.82 2.57 11
246 09/16/2022 19:28:45 71.71,-112.93 69.19 09/16/2022 19:28:54 71.70,-112.90 69.19 1.24 9
247 09/16/2022 20:18:10 -71.69, 54.75 110.82 09/16/2022 20:18:22 -71.70, 54.74 110.80 2.20 12
248 09/16/2022 21:07:37 71.71,-137.64 69.22 09/16/2022 21:07:47 71.70,-137.63 69.21 1.27 10
249 09/16/2022 21:57:02 -71.69, 30.04 110.79 09/16/2022 21:57:15 -71.70, 30.01 110.78 1.93 13
250 09/16/2022 22:46:29 71.71,-162.36 69.24 09/16/2022 22:46:40 71.69,-162.35 69.23 1.53 11
251 09/16/2022 23:35:54 -71.69, 5.32 110.77 09/16/2022 23:36:08 -71.70, 5.29 110.76 1.80 14
252 09/17/2022 00:25:21 71.71, 172.92 69.27 09/17/2022 00:25:33 71.69, 172.92 69.25 1.94 12
253 09/17/2022 01:14:46 -71.68, -19.39 110.74 09/17/2022 01:15:01 -71.69, -19.44 110.73 1.85 15
254 09/17/2022 02:04:13 71.71, 148.21 69.30 09/17/2022 02:04:26 71.69, 148.19 69.28 2.42 13
255 09/17/2022 02:53:38 -71.68, -44.11 110.72 09/17/2022 02:53:54 -71.69, -44.17 110.71 2.06 16
256 09/17/2022 03:43:05 71.71, 123.49 69.32 09/17/2022 03:43:19 71.68, 123.46 69.30 2.94 14



Historial Predications of SNOs between AQUA and TERRA
